Latest Weather Observations for Minnipa RS

IDS60801

Issued at 9:35 am CST Tuesday 2 September 2014 (issued every 30 minutes, with the page automatically refreshed every 10 minutes)

About weather observations | Map of weather stations | Latest weather observations for SA | Other Formats
Station Details ID: 018195 Name: MINNIPA PIRSA Lat: -32.84 Lon: 135.15 Height: 165.0 m
Data from the previous 72 hours. | See also: Recent months at Minnipa RS
Date/Time
CST
Temp
°C
App
Temp
°C
Dew
Point
Rel
Hum
%
Delta-T
°C
Wind Press
QNH
hPa
Press
MSL
hPa
Rain
since 9 am
mm
Dir
 
Spd
km/h
Gust
km/h
Spd
kts
Gust
kts
02/09:30am 11.2 6.7 6.1 71 2.4 SSE 19 26 10 14 1028.3 - 0.0
02/09:00am 10.2 7.2 6.2 76 1.9 SSE 11 19 6 10 1028.5 1028.5 1.0
02/08:30am 8.6 7.7 6.2 85 1.1 NNW 0 0 0 0 1028.5 - 1.0
02/08:00am 7.8 7.0 6.4 91 0.6 CALM 0 0 0 0 1028.2 - 1.0
02/07:30am 5.7 4.4 4.3 91 0.6 CALM 0 0 0 0 1027.5 - 1.0
02/07:00am 5.7 3.2 4.0 89 0.7 SSE 6 7 3 4 1027.5 - 1.0
02/06:30am 6.2 3.7 4.5 89 0.7 S 7 9 4 5 1027.0 - 1.0
02/06:00am 6.5 3.3 5.0 90 0.7 S 11 17 6 9 1026.9 1026.9 1.0
02/05:30am 4.0 2.5 3.1 94 0.4 CALM 0 0 0 0 1026.9 - 1.0
02/05:00am 3.7 2.2 2.8 94 0.4 CALM 0 0 0 0 1026.7 - 1.0
02/04:30am 3.6 0.9 2.7 94 0.4 WSW 6 7 3 4 1026.3 - 1.0
02/04:00am 1.6 -1.1 0.6 93 0.4 WSW 4 6 2 3 1026.0 - 1.0
02/03:30am 2.3 -1.2 1.3 93 0.4 WSW 9 11 5 6 1026.1 - 1.0
02/03:00am 3.4 0.4 2.2 92 0.5 WSW 7 9 4 5 1025.9 1025.9 1.0
02/02:30am 4.1 1.9 3.2 94 0.4 WSW 4 7 2 4 1025.7 - 1.0
02/02:00am 4.3 1.7 3.0 91 0.5 WSW 6 7 3 4 1025.8 - 1.0
02/01:30am 4.7 1.5 3.2 90 0.6 WSW 9 11 5 6 1025.7 - 1.0
02/01:00am 5.3 2.2 3.8 90 0.6 WSW 9 9 5 5 1025.6 - 1.0
02/12:30am 5.5 2.4 3.8 89 0.7 SSW 9 11 5 6 1025.4 - 1.0
02/12:00am 6.3 3.4 4.6 89 0.7 SSW 9 13 5 7 1025.4 1025.4 1.0
 
Date/Time
CST
Temp
°C
App
Temp
°C
Dew
Point
Rel
Hum
%
Delta-T
°C
Wind Press
QNH
hPa
Press
MSL
hPa
Rain
since 9 am
mm
Dir
 
Spd
km/h
Gust
km/h
Spd
kts
Gust
kts
01/11:30pm 5.3 2.7 4.0 91 0.6 SSW 7 9 4 5 1025.4 - 1.0
01/11:00pm 5.4 2.7 3.6 88 0.8 SSW 7 7 4 4 1025.3 - 1.0
01/10:30pm 6.8 4.0 5.0 88 0.8 SSW 9 11 5 6 1025.2 - 1.0
01/10:00pm 6.9 3.8 5.4 90 0.7 SW 11 24 6 13 1025.1 - 1.0
01/09:30pm 6.1 3.1 4.3 88 0.8 WSW 9 11 5 6 1024.7 - 1.0
01/09:00pm 6.7 3.8 4.9 88 0.8 WSW 9 13 5 7 1024.5 1024.4 1.0
01/08:30pm 6.6 3.3 4.6 87 0.9 SW 11 15 6 8 1024.0 - 1.0
01/08:00pm 7.4 4.2 4.9 84 1.1 SW 11 15 6 8 1023.5 - 1.0
01/07:30pm 8.0 4.0 4.9 81 1.4 SW 15 20 8 11 1023.0 - 1.0
01/07:00pm 9.2 3.9 5.0 75 1.9 SW 22 30 12 16 1022.5 - 1.0
01/06:30pm 10.1 5.2 4.9 70 2.4 SSW 20 28 11 15 1022.0 - 0.8
01/06:00pm 10.3 6.1 5.9 74 2.0 SW 17 24 9 13 1021.3 1021.3 0.8
01/05:35pm 10.5 4.3 6.3 75 2.0 SSW 28 48 15 26 1020.9 - 0.8
01/05:30pm 11.4 5.7 4.8 64 3.0 SSW 24 35 13 19 1020.7 - 0.8
01/05:14pm 12.5 6.0 4.7 59 3.6 SW 28 46 15 25 1020.3 - 0.8
01/05:00pm 12.3 5.5 5.2 62 3.3 SW 30 43 16 23 1020.2 - 0.8
01/04:30pm 12.9 6.4 6.3 64 3.2 SSW 30 43 16 23 1019.8 - 0.8
01/04:00pm 13.9 7.6 7.2 64 3.3 SW 30 43 16 23 1019.4 - 0.8
01/03:30pm 11.6 5.9 8.5 81 1.5 SW 28 43 15 23 1019.0 - 0.8
01/03:18pm 13.2 7.3 7.6 69 2.8 SW 28 46 15 25 1018.8 - 0.8
01/03:00pm 13.7 9.3 10.3 80 1.8 SW 24 33 13 18 1018.6 1018.5 0.8
01/02:42pm 11.6 6.1 9.0 84 1.3 WSW 28 46 15 25 1018.7 - 0.8
01/02:30pm 12.6 6.9 8.5 76 2.1 SW 28 41 15 22 1018.5 - 0.4
01/02:04pm 14.7 8.8 7.3 61 3.7 WSW 28 46 15 25 1017.9 - 0.4
01/02:00pm 15.0 9.1 7.3 60 3.8 WSW 28 39 15 21 1017.8 - 0.4
01/01:30pm 14.8 7.7 6.6 58 4.0 SW 33 43 18 23 1017.6 - 0.4
01/01:09pm 14.5 9.6 11.3 81 1.7 SW 28 46 15 25 1017.8 - 0.4
01/01:00pm 14.4 8.5 9.0 70 2.8 SW 30 46 16 25 1017.6 - 0.4
01/12:30pm 14.5 8.8 8.5 67 3.0 WSW 28 41 15 22 1017.7 - 0.4
01/12:00pm 15.6 12.0 9.9 69 3.0 WSW 19 30 10 16 1017.7 1017.6 0.4
01/11:30am 12.4 8.1 9.2 81 1.6 SW 22 39 12 21 1017.9 - 0.2
01/11:00am 13.9 10.4 10.1 78 2.0 SW 19 24 10 13 1017.9 - 0.0
01/10:30am 13.7 10.1 10.5 81 1.7 SW 20 28 11 15 1018.0 - 0.0
01/10:00am 12.5 9.8 10.2 86 1.2 WSW 15 22 8 12 1018.0 - 0.0
01/09:30am 11.9 9.2 10.5 91 0.7 SW 15 20 8 11 1017.8 - 0.0
01/09:00am 12.0 8.6 10.4 90 0.8 WSW 19 30 10 16 1017.5 1017.4 4.6
01/08:30am 12.4 11.2 11.5 94 0.5 WSW 9 15 5 8 1017.1 - 4.6
01/08:00am 12.0 10.7 11.2 95 0.4 WSW 9 13 5 7 1016.7 - 4.6
01/07:30am 11.6 10.2 10.8 95 0.4 W 9 13 5 7 1016.2 - 4.6
01/07:00am 11.5 10.0 10.7 95 0.4 WNW 9 13 5 7 1015.7 - 4.6
01/06:30am 11.3 9.8 10.5 95 0.4 WNW 9 13 5 7 1015.6 - 4.2
01/06:00am 11.2 10.2 10.4 95 0.4 SW 6 9 3 5 1015.4 1015.4 3.8
01/05:30am 11.3 10.2 10.5 95 0.4 SW 7 9 4 5 1014.8 - 3.8
01/05:00am 11.5 10.4 10.7 95 0.4 SW 7 9 4 5 1015.0 - 3.8
01/04:30am 11.5 10.6 10.7 95 0.4 SW 6 7 3 4 1014.6 - 3.6
01/04:00am 11.7 9.9 10.9 95 0.4 SW 11 15 6 8 1014.5 - 3.6
01/03:30am 11.7 9.9 10.9 95 0.4 SW 11 13 6 7 1014.7 - 3.4
01/03:00am 11.7 9.5 10.9 95 0.4 SW 13 17 7 9 1014.0 1013.9 3.4
01/02:30am 11.7 9.9 10.8 94 0.5 SW 11 13 6 7 1013.8 - 3.4
01/02:00am 11.7 9.9 10.8 94 0.5 SSW 11 17 6 9 1014.6 - 3.2
01/01:30am 11.7 10.6 10.8 94 0.5 SSE 7 7 4 4 1013.6 - 3.2
01/01:00am 11.9 10.1 11.0 94 0.5 S 11 15 6 8 1014.1 - 3.2
01/12:30am 12.2 10.5 11.3 94 0.5 SSW 11 17 6 9 1014.2 - 3.2
01/12:00am 12.5 10.5 11.6 94 0.5 SW 13 17 7 9 1014.6 1014.5 1.6
 
Date/Time
CST
Temp
°C
App
Temp
°C
Dew
Point
Rel
Hum
%
Delta-T
°C
Wind Press
QNH
hPa
Press
MSL
hPa
Rain
since 9 am
mm
Dir
 
Spd
km/h
Gust
km/h
Spd
kts
Gust
kts
31/11:30pm 12.6 11.7 11.5 93 0.6 SW 7 9 4 5 1013.9 - 1.4
31/11:00pm 12.6 11.4 11.5 93 0.6 SW 9 9 5 5 1014.2 - 1.2
31/10:30pm 12.7 12.1 11.6 93 0.6 SW 6 9 3 5 1013.7 - 0.8
31/10:00pm 13.0 12.3 11.9 93 0.6 SW 7 13 4 7 1014.4 - 0.8
31/09:30pm 13.1 12.3 11.8 92 0.7 SW 7 11 4 6 1014.4 - 0.0
31/09:00pm 13.1 11.9 11.7 91 0.8 SW 9 11 5 6 1014.1 1014.2 0.0
31/08:30pm 13.3 12.1 11.7 90 0.9 SW 9 11 5 6 1013.7 - 0.0
31/08:00pm 13.7 11.8 11.9 89 1.0 SW 13 17 7 9 1013.6 - 0.0
31/07:30pm 14.1 11.9 12.0 87 1.1 SW 15 20 8 11 1013.3 - 0.0
31/07:00pm 14.4 11.2 11.9 85 1.4 SSW 20 28 11 15 1013.1 - 0.0
31/06:30pm 14.8 11.6 11.8 82 1.6 SSW 20 30 11 16 1012.5 - 0.0
31/06:00pm 15.2 12.2 10.8 75 2.4 SW 17 24 9 13 1012.4 1012.4 0.0
31/05:30pm 16.3 11.6 9.3 63 3.7 SSW 24 37 13 20 1011.9 - 0.0
31/05:00pm 18.5 13.2 1.9 33 7.6 WSW 19 24 10 13 1012.0 - 0.0
31/04:30pm 18.9 14.3 1.4 31 7.9 SW 15 24 8 13 1011.6 - 0.0
31/04:00pm 19.2 14.1 0.8 29 8.3 WSW 17 24 9 13 1011.9 - 0.0
31/03:30pm 19.8 14.1 0.3 27 8.7 W 20 30 11 16 1011.6 - 0.0
31/03:00pm 20.6 15.1 0.4 26 9.1 W 19 24 10 13 1011.3 1011.3 0.0
31/02:30pm 21.5 16.2 -0.5 23 9.8 WNW 17 24 9 13 1011.0 - 0.0
31/02:00pm 22.5 16.8 -0.9 21 10.5 WNW 19 28 10 15 1011.3 - 0.0
31/01:30pm 22.7 16.4 -0.7 21 10.5 WNW 22 33 12 18 1011.7 - 0.0
31/01:00pm 22.8 16.6 -0.6 21 10.5 NNW 22 30 12 16 1012.4 - 0.0
31/12:30pm 21.7 16.0 -0.9 22 10.0 N 19 26 10 14 1012.2 - 0.0
31/12:00pm 20.3 14.4 -0.9 24 9.3 N 20 30 11 16 1012.6 1012.6 0.0
31/11:30am 19.3 14.2 0.8 29 8.3 N 17 24 9 13 1012.9 - 0.0
31/11:00am 18.0 13.4 1.5 33 7.5 NNW 15 20 8 11 1014.3 - 0.0
31/10:30am 18.3 13.3 1.3 32 7.7 NNW 17 24 9 13 1014.7 - 0.0
31/10:00am 19.1 12.8 -0.8 26 8.7 NNW 22 32 12 17 1015.0 - 0.0
31/09:30am 17.7 13.6 2.1 35 7.1 NNW 13 19 7 10 1014.6 - 0.0
31/09:00am 15.6 10.4 -0.2 34 6.7 N 17 22 9 12 1015.1 1015.2 0.0
31/08:30am 14.8 9.0 -0.1 36 6.3 N 20 26 11 14 1014.7 - 0.0
31/08:00am 14.0 8.3 0.6 40 5.7 N 20 26 11 14 1014.8 - 0.0
31/07:30am 13.2 7.2 -1.2 37 5.9 N 20 26 11 14 1014.5 - 0.0
31/07:00am 12.7 6.2 -2.7 34 6.0 N 22 26 12 14 1014.6 - 0.0
31/06:30am 12.5 6.5 -3.3 33 6.1 N 19 22 10 12 1014.6 - 0.0
31/06:00am 13.2 7.0 -3.1 32 6.4 N 20 24 11 13 1014.5 1014.6 0.0
31/05:30am 14.4 7.8 -3.4 29 7.0 N 22 26 12 14 1014.4 - 0.0
31/05:00am 14.7 8.1 -3.6 28 7.2 N 22 28 12 15 1014.3 - 0.0
31/04:30am 14.4 7.7 -3.9 28 7.1 N 22 26 12 14 1014.2 - 0.0
31/04:00am 14.7 8.4 -4.1 27 7.3 N 20 26 11 14 1014.1 - 0.0
31/03:30am 15.3 9.0 -4.1 26 7.6 N 20 28 11 15 1014.2 - 0.0
31/03:00am 15.0 8.3 -4.3 26 7.5 N 22 28 12 15 1014.4 1014.5 0.0
31/02:30am 15.4 8.3 -4.5 25 7.7 N 24 32 13 17 1014.3 - 0.0
31/02:00am 14.8 8.4 -5.0 25 7.5 N 20 24 11 13 1014.8 - 0.0
31/01:30am 15.6 9.2 -4.9 24 7.9 N 20 24 11 13 1015.1 - 0.0
31/01:00am 15.6 8.4 -5.4 23 8.0 NNE 24 32 13 17 1014.8 - 0.0
31/12:30am 15.8 8.2 -5.3 23 8.1 NNE 26 32 14 17 1015.1 - 0.0
31/12:00am 15.3 8.1 -5.1 24 7.8 NNE 24 30 13 16 1015.6 1015.7 0.0
 
Date/Time
CST
Temp
°C
App
Temp
°C
Dew
Point
Rel
Hum
%
Delta-T
°C
Wind Press
QNH
hPa
Press
MSL
hPa
Rain
since 9 am
mm
Dir
 
Spd
km/h
Gust
km/h
Spd
kts
Gust
kts
30/11:30pm 15.4 8.3 -4.5 25 7.7 N 24 30 13 16 1016.0 - 0.0
30/11:00pm 15.1 8.3 -4.8 25 7.6 N 22 26 12 14 1016.2 - 0.0
30/10:30pm 15.7 9.0 -4.2 25 7.8 NNE 22 30 12 16 1016.5 - 0.0
30/10:00pm 16.1 9.0 -4.4 24 8.0 NNE 24 30 13 16 1016.8 - 0.0
30/09:30pm 16.7 10.0 -4.5 23 8.3 NNE 22 30 12 16 1017.1 - 0.0
30/09:00pm 16.8 10.1 -3.9 24 8.2 NNE 22 26 12 14 1017.3 1017.4 0.0
30/08:30pm 16.6 10.5 -3.5 25 8.1 NNE 19 22 10 12 1017.7 - 0.0
30/08:00pm 17.2 11.2 -3.0 25 8.2 NNE 19 24 10 13 1017.7 - 0.0
30/07:30pm 18.3 12.4 -2.6 24 8.7 NNE 19 22 10 12 1017.6 - 0.0
30/07:00pm 17.3 12.0 -0.9 29 7.8 NNE 17 19 9 10 1017.5 - 0.0
30/06:30pm 16.9 11.5 -1.2 29 7.7 NNE 17 19 9 10 1017.5 - 0.0
30/06:00pm 17.0 12.2 0.2 32 7.3 N 15 17 8 9 1017.6 1017.6 0.0
30/05:30pm 19.6 14.8 0.1 27 8.7 N 15 19 8 10 1017.6 - 0.0
30/05:00pm 20.6 14.6 -1.2 23 9.5 N 20 30 11 16 1017.3 - 0.0
30/04:30pm 22.8 17.0 0.0 22 10.4 N 20 26 11 14 1017.5 - 0.0
30/04:00pm 22.0 16.5 -2.0 20 10.5 N 17 26 9 14 1017.8 - 0.0
30/03:30pm 22.0 16.1 -2.0 20 10.5 N 19 30 10 16 1017.9 - 0.0
30/03:00pm 21.3 15.6 -0.6 23 9.7 N 19 32 10 17 1018.3 1018.3 0.0
30/02:30pm 21.7 15.1 -2.9 19 10.5 N 22 30 12 16 1018.4 - 0.0
30/02:00pm 23.2 16.9 -1.0 20 10.9 N 22 28 12 15 1018.8 - 0.0
30/01:30pm 21.8 15.0 -5.1 16 11.0 N 22 35 12 19 1019.3 - 0.0
30/01:00pm 23.1 15.8 -2.5 18 11.2 N 26 35 14 19 1020.0 - 0.0
30/12:30pm 22.0 14.3 -2.7 19 10.6 N 28 41 15 22 1020.4 - 0.0
30/12:00pm 21.8 13.1 -3.5 18 10.6 N 33 48 18 26 1020.8 1020.9 0.0
30/11:30am 21.7 13.0 -3.6 18 10.7 N 33 44 18 24 1021.3 - 0.0
30/11:13am 21.8 13.2 -2.8 19 10.5 N 33 52 18 28 1021.6 - 0.0
30/11:00am 21.2 12.3 -2.0 21 10.0 N 35 48 19 26 1021.8 - 0.0
30/10:33am 20.4 11.7 -3.3 20 9.9 N 33 52 18 28 1022.2 - 0.0
30/10:30am 20.5 12.3 -1.3 23 9.5 N 32 44 17 24 1022.2 - 0.0
30/10:00am 19.4 12.0 -0.6 26 8.8 N 28 43 15 23 1022.3 - 0.0

Other Formats:

Comma delimited format used in spreadsheet applications
http://www.bom.gov.au/fwo/IDS60801/IDS60801.95662.axf

JavaScript Object Notation format (JSON) in row-major order
http://www.bom.gov.au/fwo/IDS60801/IDS60801.95662.json